NIMBUS 2 DEB, 28208

Orbit data source: Space-Track

NIMBUS 2 DEB, 28208 is space debris in SSO originally from a launch on Sun, 15 May 1966 UTC launched from the Air Force Western Test Range (AFWTR). Debris objects in space refer to the collection of defunct objects orbiting the Earth. Examples of debris include non-operational satellites, rocket bodies, and fragments generated from explosions, collisions, or faulty payload assembly.

Loading next visibility...
Identifier
28208, 1966-040W
Orbit
SSO
Country
Flag of USUS
Related business
Manufacturer
Unknown
Mission
Spacecraft
Bus & Motor
Unknown
Mass
Unknown
Launch date (UTC)
1966-05-15 (60 years ago)
Launch vehicle
Unknown
Launch site
Air Force Western Test Range (AFWTR)
Object type
Payload
Rocket body
Debris
Shape & HBR
Unknown shape, 0.1 m
Radar Cross Section
Medium (>0.1 m² and <1 m²)

Expand to show TLE details & history
Last TLE update: 1 week ago

TLE from 1 week ago
0 NIMBUS 2 DEB
1 28208U 66040W   26150.58711917  .00002484  00000-0  30559-2 0  9991
2 28208 100.3067 185.7521 0039448 283.1036 229.0962 13.66157043252677
Epoch: 2026-05-30T14:05Z
TLE epoch observation values (Epoch: 2026-05-30T14:05:27.096Z)
Latitude
27.68885°
Longitude
-88.26412°
Altitude
1,035.841 km
Speed
7.327 km/s
True Right ascension
00h 44m 47s
True Declination
27° 33' 10"
Sunlit
Object was in daylight at epoch
Visualization orbit readout
Latitude
Unknown
Longitude
Unknown
Altitude
Unknown
Speed
Unknown
Apparent Right ascension
Unknown
Apparent Declination
Unknown
Sunlit
N/A
Visualization observer readout
Local Sidereal Time
06:09:53
Azimuth
Unknown
Elevation
Unknown
Doppler factor
Unknown
Orbital elements
Apogee altitude
1,039.86 km
Perigee altitude
981.565 km
Semi-major axis
7,388.849 km
Eccentricity
0.00394
Inclination
100.3067°
RAAN
185.7521°
Arg. of periapsis
283.1036°
True anomaly
228.75564°
Mean anomaly
229.0962°
Eccentric anomaly
228.92581°
Mean motion
3.41726 °/min
Orbital period
105.35 mins
BSTAR
0.0030559
Loading maneuver chart data...
Computing Atmospheric mass density...
Loading historical data...
Loading historical data...
Loading historical data...
Loading historical data...
Loading historical data...
Loading historical data...
Loading historical data...

Documentation

Showing up to 5 results
|